Regional Weather Roundup
Issued by NWS

Home | Current Version | Previous Version | Graphics & Text | Print | Product List | Glossary On
Versions: 1 2 3 4 5 6 7 8 9 10 11 12 13 14 15 16 17 18 19 20 21 22 23 24 25 26 27 28 29 30 31 32 33 34 35 36 37 38 39 40 41 42 43 44 45 46 47 48 49 50
000
ASUS43 KLOT 021900
RWRIL

ILLINOIS REGIONAL WEATHER ROUNDUP
NATIONAL WEATHER SERVICE CHICAGO/ROMEOVILLE IL
200 PM CDT SUN AUG 02 2015

NOTE: "FAIR" INDICATES FEW OR NO CLOUDS BELOW 12,000 FEET WITH NO
SIGNIFICANT WEATHER AND/OR OBSTRUCTIONS TO VISIBILITY.

* THESE STATIONS ARE NOT UNDER NWS QUALITY CONTROL. THEY ALSO MAY NOT
  REPORT WEATHER SUCH AS PRECIPITATION OR FOG.

ILZ001-002-007-009-015-016-024-022000-
NORTHWEST ILLINOIS

CITY           SKY/WX    TMP DP  RH WIND       PRES   REMARKS
MOLINE         MOSUNNY   90  71  53 SW17      29.77F HX  96
STERLING*      MOSUNNY   90  72  55 W13G20    29.75F HX  96
$$

ILZ003-004-008-010-011-017-018-022000-
NORTH CENTRAL ILLINOIS

CITY           SKY/WX    TMP DP  RH WIND       PRES   REMARKS
ROCKFORD       MOSUNNY   89  68  49 SW21G29   29.75F HX  93
$$

ILZ005-006-012>014-019>023-022000-
NORTHEAST ILLINOIS

CITY           SKY/WX    TMP DP  RH WIND       PRES   REMARKS
CHICAGO-OHARE  MOSUNNY   90  66  45 SW20G33   29.75F HX  92
CHICAGO-MIDWAY MOSUNNY   94  64  37 SW21G30   29.76F HX  95
AURORA         MOSUNNY   89  68  49 SW20G26   29.77F HX  93
WAUKEGAN       SUNNY     90  67  46 SW13G26   29.70F HX  93
DUPAGE AIRPORT SUNNY     91  68  46 SW21G29   29.76F HX  95
WHEELING       SUNNY     92  65  40 SW15G30   29.74F HX  94
NORTHERLY ISL    N/A     90  60  36 W16         N/A  HX  89
$$

LMZ740>746-022000-
SOUTHERN LAKE MICHIGAN

STATION/POSITION SKY/WX   TEMP    WIND        PRES    VSBY  WAVE
                          AIR SEA DIR/SP/G                  HT/PER
                          (F)     (DEG/KT/KT) (MB)    (MI)  (FT/S)
HARRISON CRIB              86     220/ 22/ 29   N/A
BURNHAM HARBOR             89     200/  9/ 21   N/A
CALUMET HARBOR             88     210/ 15/ 23   N/A
BURNS HARBOR               87     230/ 17/ 27 1009.5S
MICHIGAN CITY              82     220/ 19/ 22   N/A
MICHIGAN CITY 6N           80 74  250/ 10/ 14   N/A           3/ 3
ST. JOSEPH                 78 74  250/ 14/ 16   N/A           2/ 3
$$

ILZ025>027-034>036-040-047-049-050-058-095>099-022000-
WEST-CENTRAL ILLINOIS

CITY           SKY/WX    TMP DP  RH WIND       PRES   REMARKS
QUINCY         SUNNY     90  71  53 SW13      29.87F HX  96
$$

ILZ028>032-037-038-041>044-048-051>054-059>061-022000-
CENTRAL ILLINOIS

CITY           SKY/WX    TMP DP  RH WIND       PRES   REMARKS
DECATUR        CLOUDY    84  71  65 S3        29.90F HX  89
PEORIA         SUNNY     92  72  51 SW14G23   29.84F HX  99
SPRINGFIELD    MOSUNNY   90  73  57 SW9G18    29.87F HX  98
TAYLORVILLE    NOT AVBL
$$

ILZ033-039-045-046-055>057-062-063-022000-
EAST-CENTRAL ILLINOIS

CITY           SKY/WX    TMP DP  RH WIND       PRES   REMARKS
CHAMPAIGN      PTSUNNY   83  71  67 SW8       29.91S HX  87
MATTOON        MOSUNNY   86  69  56 SW7       29.91F HX  90
$$

ILZ079-100>102-022000-
SOUTHWEST ILLINOIS

CITY           SKY/WX    TMP DP  RH WIND       PRES   REMARKS
CAHOKIA*       SUNNY     95  67  39 W10       29.90S HX  99
$$

ILZ064>066-069>071-074>076-080>082-084>086-088>090-092>094-022000-
SOUTH-CENTRAL ILLINOIS

CITY           SKY/WX    TMP DP  RH WIND       PRES   REMARKS
CARBONDALE     MOSUNNY   89  71  55 W7        29.93F HX  95
MARION         PTSUNNY   88  73  62 SW9       29.94F HX  96
MT. VERNON     MOSUNNY   91  72  52 SW8       29.93F HX  98
$$

ILZ067-068-072-073-078-083-087-091-022000-
SOUTHEAST ILLINOIS

CITY           SKY/WX    TMP DP  RH WIND       PRES   REMARKS
LAWRENCEVILLE  SUNNY     89  68  49 S10       29.93F HX  93
$$

ABBREVIATIONS USED IN REMARKS
   TC - TEMPERATURE IN CELSIUS
  WCI - WIND CHILL INDEX
   HX - HEAT INDEX
  VSB - VISIBILITY
$$




USA.gov is the U.S. government's official web portal to all federal, state and local government web resources and services.